Change the Weather History Date:

Wednesday, September 5, 2012

  Actual Average Record
Temperature  
Mean Temperature 84 °F -  
Max Temperature 95 °F 84 °F 96 °F (1998)
Min Temperature 75 °F 64 °F 54 °F (2008)
Cooling Degree Days 19    
Growing Degree Days 34 (Base 50)    
Moisture  
Dew Point 65 °F    
Average Humidity 52    
Maximum Humidity 71    
Minimum Humidity 36    
Precipitation  
Precipitation 0.00 in - - ()
Sea Level Pressure  
Sea Level Pressure 29.79 in    
Wind  
Wind Speed 4 mph (NNW)    
Max Wind Speed 12 mph    
Max Gust Speed -    
Visibility 10 miles    
Events      
Averages and records for this station are not official NWS values.
T = Trace of Precipitation, MM = Missing Value Source: NWS Daily Summary

Daily Weather History Graph

Daily Weather History Graph

Search for Another Location

Airport or City:

Trip Planner

Search our weather history database for the weather conditions in past years. The results will help you decide how hot, cold, wet, or windy it might be!

Date:

Astronomy

Sep. 05, 2012 Rise Set
Actual Time 6:51 AM CDT 7:41 PM CDT
Civil Twilight 6:23 AM CDT 8:09 PM CDT
Nautical Twilight 5:51 AM CDT 8:41 PM CDT
Astronomical Twilight 5:18 AM CDT 9:14 PM CDT
Moon 10:15 PM CDT (9/5) 11:53 AM CDT (9/5)
Length of Visible Light 13h 45m
Length of Day
12h 50m
Waning Gibbous, 76% of the Moon is Illuminated
Sep 5
Waning Gibbous
Sep 8
Last Quarter
Sep 15
New
Sep 22
First Quarter
Sep 29
Full

Hourly Weather History & Observations

Time (CDT) Temp. Heat Index Dew Point Humidity Pressure Visibility Wind Dir Wind Speed Gust Speed Precip Events Conditions
12:54 AM 82.0 °F 85.5 °F 69.1 °F 65% 29.75 in 10.0 mi SSW 3.5 mph - N/A   Clear
1:54 AM 82.0 °F 85.5 °F 69.1 °F 65% 29.74 in 10.0 mi Calm Calm - N/A   Clear
2:54 AM 81.0 °F 83.8 °F 68.0 °F 65% 29.77 in 10.0 mi SW 11.5 mph - N/A   Clear
3:54 AM 82.0 °F 83.1 °F 63.0 °F 52% 29.75 in 10.0 mi WSW 3.5 mph - N/A   Clear
4:54 AM 80.1 °F 81.9 °F 64.9 °F 60% 29.74 in 10.0 mi Calm Calm - N/A   Clear
5:54 AM 79.0 °F - 64.0 °F 60% 29.76 in 10.0 mi Calm Calm - N/A   Clear
6:54 AM 75.9 °F - 66.0 °F 71% 29.78 in 10.0 mi West 3.5 mph - N/A   Clear
7:54 AM 77.0 °F - 64.9 °F 66% 29.79 in 10.0 mi Calm Calm - N/A   Clear
8:54 AM 81.0 °F 82.5 °F 64.0 °F 56% 29.81 in 10.0 mi North 4.6 mph - N/A   Clear
9:54 AM 84.0 °F 85.8 °F 64.9 °F 53% 29.82 in 10.0 mi NNE 5.8 mph - N/A   Clear
10:54 AM 84.0 °F 84.9 °F 63.0 °F 49% 29.82 in 10.0 mi Calm Calm - N/A   Clear
11:54 AM 86.0 °F 87.3 °F 64.0 °F 48% 29.82 in 10.0 mi Calm Calm - N/A   Clear
12:54 PM 90.0 °F 91.3 °F 64.0 °F 42% 29.80 in 10.0 mi Variable 3.5 mph - N/A   Clear
1:54 PM 91.9 °F 93.3 °F 64.0 °F 39% 29.79 in 10.0 mi Calm Calm - N/A   Clear
2:54 PM 93.9 °F 95.2 °F 63.0 °F 36% 29.78 in 10.0 mi WSW 4.6 mph - N/A   Clear
3:54 PM 93.9 °F 95.6 °F 64.0 °F 37% 29.78 in 10.0 mi Variable 3.5 mph - N/A   Clear
4:54 PM 93.0 °F 95.0 °F 64.9 °F 39% 29.78 in 10.0 mi NNW 10.4 mph - N/A   Clear
5:54 PM 93.0 °F 95.9 °F 66.0 °F 41% 29.78 in 10.0 mi NNW 4.6 mph - N/A   Clear
6:54 PM 90.0 °F 93.6 °F 68.0 °F 48% 29.79 in 10.0 mi North 9.2 mph - N/A   Clear
7:54 PM 87.1 °F 90.6 °F 68.0 °F 53% 29.81 in 10.0 mi North 6.9 mph - N/A   Clear
8:54 PM 84.9 °F 87.6 °F 66.9 °F 55% 29.83 in 10.0 mi North 6.9 mph - N/A   Partly Cloudy
9:54 PM 82.9 °F 85.0 °F 66.0 °F 56% 29.84 in 10.0 mi North 4.6 mph - N/A   Partly Cloudy
10:54 PM 81.0 °F 81.1 °F 57.9 °F 45% 29.86 in 10.0 mi NNE 8.1 mph - N/A   Clear
11:54 PM 79.0 °F - 55.0 °F 44% 29.87 in 10.0 mi NE 6.9 mph - N/A   Scattered Clouds